| time (UTC) | temp C | wind direction | speed KPH | gust KPH | rain 1hr cm | rain 24hr cm | rain mn cm | humidity % | barometer mb |
| 20260509093702 | 7 | 93 | 0.0 | 0.0 | 0.00 | 0.00 | 0.00 | 81 | 1013.6 |
| 20260509093158 | 7 | 93 | 0.0 | 0.0 | 0.00 | 0.00 | 0.00 | 81 | 1013.5 |
| 20260509092656 | 7 | 93 | 0.0 | 0.0 | 0.00 | 0.00 | 0.00 | 81 | 1013.7 |
| 20260509092155 | 7 | 93 | 0.0 | 0.0 | 0.00 | 0.00 | 0.00 | 80 | 1013.8 |
| 20260509091653 | 7 | 93 | 0.0 | 0.0 | 0.00 | 0.00 | 0.00 | 79 | 1013.9 |
| 20260509091148 | 8 | 93 | 0.0 | 0.0 | 0.00 | 0.00 | 0.00 | 78 | 1013.8 |
| 20260509090646 | 7 | 78 | 0.0 | 0.0 | 0.00 | 0.00 | 0.00 | 79 | 1013.7 |
| 20260509090143 | 8 | 56 | 0.0 | 1.6 | 0.00 | 0.00 | 0.00 | 78 | 1013.8 |
| 20260509085641 | 8 | 104 | 0.0 | 0.0 | 0.00 | 0.00 | 0.00 | 78 | 1013.9 |
| 20260509085137 | 8 | 106 | 0.0 | 0.0 | 0.00 | 0.00 | 0.00 | 77 | 1013.9 |
| 20260509084635 | 8 | 112 | 0.0 | 0.0 | 0.00 | 0.00 | 0.00 | 75 | 1013.9 |
| 20260509084131 | 8 | 134 | 0.0 | 0.0 | 0.00 | 0.00 | 0.00 | 77 | 1013.9 |
| 20260509083629 | 8 | 67 | 0.0 | 0.0 | 0.00 | 0.00 | 0.00 | 77 | 1013.9 |
| 20260509083125 | 8 | 67 | 0.0 | 0.0 | 0.00 | 0.00 | 0.00 | 78 | 1014.1 |
| 20260509082623 | 8 | 69 | 0.0 | 0.0 | 0.00 | 0.00 | 0.00 | 77 | 1014.1 |
| 20260509082119 | 8 | 110 | 0.0 | 0.0 | 0.00 | 0.00 | 0.00 | 74 | 1014.1 |
| 20260509081616 | 8 | 196 | 0.0 | 0.0 | 0.00 | 0.00 | 0.00 | 73 | 1014.1 |
| 20260509081114 | 8 | 204 | 1.6 | 3.2 | 0.00 | 0.00 | 0.00 | 74 | 1014.2 |
| 20260509080612 | 8 | 146 | 3.2 | 4.8 | 0.00 | 0.00 | 0.00 | 73 | 1013.9 |
| 20260509080109 | 8 | 199 | 1.6 | 3.2 | 0.00 | 0.00 | 0.00 | 73 | 1013.8 |
| 20260509075607 | 8 | 191 | 0.0 | 4.8 | 0.00 | 0.00 | 0.00 | 72 | 1013.8 |
| 20260509075104 | 8 | 177 | 3.2 | 6.4 | 0.00 | 0.00 | 0.00 | 72 | 1014.1 |
| 20260509074600 | 8 | 162 | 1.6 | 3.2 | 0.00 | 0.00 | 0.00 | 74 | 1014.1 |
| 20260509074051 | 8 | 139 | 1.6 | 6.4 | 0.00 | 0.00 | 0.00 | 72 | 1014.2 |
| 20260509073548 | 8 | 149 | 1.6 | 1.6 | 0.00 | 0.00 | 0.00 | 76 | 1013.9 |
| 20260509073044 | 8 | 135 | 0.0 | 0.0 | 0.00 | 0.00 | 0.00 | 78 | 1014.1 |
| 20260509072540 | 8 | 5 | 0.0 | 0.0 | 0.00 | 0.00 | 0.00 | 78 | 1014.0 |
| 20260509072038 | 8 | 98 | 0.0 | 0.0 | 0.00 | 0.00 | 0.00 | 78 | 1014.2 |
| 20260509071534 | 8 | 70 | 0.0 | 0.0 | 0.00 | 0.00 | 0.00 | 77 | 1014.1 |
| 20260509071032 | 8 | 324 | 0.0 | 0.0 | 0.00 | 0.00 | 0.00 | 78 | 1014.3 |
| 20260509070529 | 8 | 324 | 0.0 | 0.0 | 0.00 | 0.00 | 0.00 | 76 | 1014.3 |
| 20260509070025 | 8 | 171 | 1.6 | 4.8 | 0.00 | 0.00 | 0.00 | 75 | 1014.3 |
| 20260509065520 | 8 | 214 | 1.6 | 3.2 | 0.00 | 0.00 | 0.00 | 75 | 1014.4 |
| 20260509065017 | 7 | 186 | 4.8 | 4.8 | 0.00 | 0.00 | 0.00 | 78 | 1014.4 |
| 20260509064515 | 7 | 61 | 1.6 | 1.6 | 0.00 | 0.00 | 0.00 | 80 | 1014.5 |
| 20260509064013 | 7 | 59 | 0.0 | 0.0 | 0.00 | 0.00 | 0.00 | 79 | 1014.4 |
| 20260509063508 | 7 | 60 | 0.0 | 1.6 | 0.00 | 0.00 | 0.00 | 81 | 1014.5 |
| 20260509063005 | 7 | 191 | 0.0 | 3.2 | 0.00 | 0.00 | 0.00 | 78 | 1014.4 |
| 20260509062502 | 6 | 166 | 0.0 | 1.6 | 0.00 | 0.00 | 0.00 | 81 | 1014.5 |
| 20260509062000 | 6 | 95 | 0.0 | 0.0 | 0.00 | 0.00 | 0.00 | 82 | 1014.6 |
| 20260509061457 | 6 | 70 | 0.0 | 0.0 | 0.00 | 0.00 | 0.00 | 81 | 1014.5 |
| 20260509060954 | 6 | 119 | 0.0 | 0.0 | 0.00 | 0.00 | 0.00 | 82 | 1015.0 |
| 20260509060452 | 6 | 120 | 0.0 | 0.0 | 0.00 | 0.00 | 0.00 | 82 | 1014.7 |
| 20260509055947 | 6 | 103 | 0.0 | 0.0 | 0.00 | 0.00 | 0.00 | 82 | 1014.7 |
| 20260509055442 | 6 | 116 | 0.0 | 0.0 | 0.00 | 0.00 | 0.00 | 81 | 1014.7 |
| 20260509054939 | 6 | 85 | 0.0 | 0.0 | 0.00 | 0.00 | 0.00 | 81 | 1014.6 |
| 20260509054436 | 6 | 85 | 0.0 | 0.0 | 0.00 | 0.00 | 0.00 | 81 | 1014.8 |
| 20260509053934 | 6 | 163 | 0.0 | 0.0 | 0.00 | 0.00 | 0.00 | 81 | 1014.8 |
| 20260509053432 | 6 | 186 | 0.0 | 1.6 | 0.00 | 0.00 | 0.00 | 81 | 1015.2 |
| 20260509052929 | 6 | 150 | 0.0 | 0.0 | 0.00 | 0.00 | 0.00 | 80 | 1015.0 |
| 20260509052426 | 6 | 148 | 0.0 | 0.0 | 0.00 | 0.00 | 0.00 | 78 | 1015.1 |
| 20260509051924 | 7 | 114 | 0.0 | 0.0 | 0.00 | 0.00 | 0.00 | 77 | 1015.0 |
| 20260509051422 | 6 | 119 | 0.0 | 0.0 | 0.00 | 0.00 | 0.00 | 79 | 1015.1 |
| 20260509050918 | 7 | 132 | 0.0 | 0.0 | 0.00 | 0.00 | 0.00 | 77 | 1015.1 |
| 20260509050415 | 7 | 211 | 0.0 | 0.0 | 0.00 | 0.00 | 0.00 | 76 | 1015.0 |
| 20260509045912 | 7 | 215 | 0.0 | 0.0 | 0.00 | 0.00 | 0.00 | 75 | 1015.1 |
| 20260509045409 | 7 | 136 | 0.0 | 1.6 | 0.00 | 0.00 | 0.00 | 74 | 1015.1 |
| 20260509044906 | 7 | 135 | 0.0 | 0.0 | 0.00 | 0.00 | 0.00 | 76 | 1015.1 |
| 20260509044404 | 7 | 132 | 0.0 | 0.0 | 0.00 | 0.00 | 0.00 | 75 | 1015.0 |
| 20260509043900 | 7 | 134 | 0.0 | 0.0 | 0.00 | 0.00 | 0.00 | 75 | 1015.1 |
| 20260509043356 | 8 | 155 | 0.0 | 1.6 | 0.00 | 0.00 | 0.00 | 74 | 1015.2 |
| 20260509042852 | 8 | 203 | 0.0 | 0.0 | 0.00 | 0.00 | 0.00 | 73 | 1015.0 |
| 20260509042349 | 8 | 143 | 0.0 | 1.6 | 0.00 | 0.00 | 0.00 | 70 | 1015.1 |
| 20260509041845 | 8 | 122 | 0.0 | 0.0 | 0.00 | 0.00 | 0.00 | 70 | 1015.0 |
| 20260509041342 | 9 | 134 | 0.0 | 0.0 | 0.00 | 0.00 | 0.00 | 68 | 1015.1 |
| 20260509040841 | 10 | 204 | 1.6 | 4.8 | 0.00 | 0.00 | 0.00 | 65 | 1015.0 |
| 20260509040338 | 9 | 189 | 0.0 | 0.0 | 0.00 | 0.00 | 0.00 | 69 | 1015.0 |
| 20260509035835 | 9 | 130 | 0.0 | 1.6 | 0.00 | 0.00 | 0.00 | 70 | 1015.0 |
| 20260509035332 | 9 | 132 | 0.0 | 0.0 | 0.00 | 0.00 | 0.00 | 69 | 1015.0 |
| 20260509034828 | 10 | 121 | 1.6 | 1.6 | 0.00 | 0.00 | 0.00 | 70 | 1015.0 |
| 20260509034326 | 10 | 162 | 0.0 | 1.6 | 0.00 | 0.00 | 0.00 | 68 | 1015.0 |
| 20260509033822 | 10 | 78 | 0.0 | 1.6 | 0.00 | 0.00 | 0.00 | 67 | 1015.0 |
| 20260509033320 | 9 | 180 | 1.6 | 3.2 | 0.00 | 0.00 | 0.00 | 70 | 1014.7 |
| 20260509032816 | 9 | 131 | 0.0 | 0.0 | 0.00 | 0.00 | 0.00 | 72 | 1014.8 |
| 20260509032314 | 8 | 125 | 0.0 | 0.0 | 0.00 | 0.00 | 0.00 | 73 | 1015.0 |
| 20260509031812 | 8 | 187 | 0.0 | 0.0 | 0.00 | 0.00 | 0.00 | 74 | 1015.0 |
| 20260509031309 | 9 | 97 | 0.0 | 0.0 | 0.00 | 0.00 | 0.00 | 73 | 1015.0 |
| 20260509030806 | 9 | 199 | 0.0 | 0.0 | 0.00 | 0.00 | 0.00 | 70 | 1015.0 |
| 20260509030304 | 9 | 260 | 1.6 | 4.8 | 0.00 | 0.00 | 0.00 | 70 | 1015.0 |
| 20260509025800 | 9 | 220 | 0.0 | 3.2 | 0.00 | 0.00 | 0.00 | 71 | 1015.0 |
| 20260509025256 | 9 | 139 | 0.0 | 1.6 | 0.00 | 0.00 | 0.00 | 69 | 1014.8 |
| 20260509024751 | 9 | 212 | 0.0 | 1.6 | 0.00 | 0.00 | 0.00 | 70 | 1015.1 |
| 20260509024248 | 9 | 214 | 0.0 | 1.6 | 0.00 | 0.00 | 0.00 | 69 | 1015.1 |
| 20260509023745 | 10 | 139 | 0.0 | 0.0 | 0.00 | 0.00 | 0.00 | 67 | 1015.2 |
| 20260509023242 | 9 | 147 | 0.0 | 0.0 | 0.00 | 0.00 | 0.00 | 68 | 1015.0 |
| 20260509022738 | 10 | 120 | 0.0 | 1.6 | 0.00 | 0.00 | 0.00 | 68 | 1015.0 |
| 20260509022236 | 9 | 102 | 0.0 | 0.0 | 0.00 | 0.00 | 0.00 | 69 | 1015.0 |
| 20260509021733 | 9 | 68 | 0.0 | 0.0 | 0.00 | 0.00 | 0.00 | 71 | 1014.8 |
| 20260509021230 | 10 | 66 | 0.0 | 1.6 | 0.00 | 0.00 | 0.00 | 70 | 1015.2 |
| 20260509020728 | 10 | 153 | 0.0 | 1.6 | 0.00 | 0.00 | 0.00 | 69 | 1015.1 |
| 20260509020225 | 9 | 149 | 0.0 | 1.6 | 0.00 | 0.00 | 0.00 | 69 | 1015.0 |
| 20260509015723 | 9 | 226 | 1.6 | 3.2 | 0.00 | 0.00 | 0.00 | 71 | 1014.8 |
| 20260509015221 | 9 | 175 | 0.0 | 3.2 | 0.00 | 0.00 | 0.00 | 74 | 1014.7 |
| 20260509014717 | 10 | 181 | 0.0 | 3.2 | 0.00 | 0.00 | 0.00 | 70 | 1014.6 |
| 20260509014214 | 10 | 145 | 0.0 | 0.0 | 0.00 | 0.00 | 0.00 | 66 | 1014.8 |
| 20260509013711 | 10 | 143 | 0.0 | 0.0 | 0.00 | 0.00 | 0.00 | 67 | 1014.8 |
| 20260509013206 | 10 | 142 | 0.0 | 0.0 | 0.00 | 0.00 | 0.00 | 66 | 1014.6 |
| 20260509012703 | 10 | 99 | 0.0 | 0.0 | 0.00 | 0.00 | 0.00 | 66 | 1014.7 |
| 20260509012200 | 11 | 97 | 0.0 | 0.0 | 0.00 | 0.00 | 0.00 | 65 | 1014.7 |
| 20260509011658 | 11 | 85 | 0.0 | 0.0 | 0.00 | 0.00 | 0.00 | 63 | 1014.6 |
| 20260509011155 | 11 | 171 | 0.0 | 0.0 | 0.00 | 0.00 | 0.00 | 67 | 1014.6 |
| 20260509010653 | 11 | 167 | 0.0 | 0.0 | 0.00 | 0.00 | 0.00 | 66 | 1014.7 |
| 20260509010149 | 11 | 104 | 0.0 | 0.0 | 0.00 | 0.00 | 0.00 | 62 | 1014.7 |
| 20260509005647 | 11 | 93 | 0.0 | 0.0 | 0.00 | 0.00 | 0.00 | 61 | 1014.6 |
| 20260509005143 | 11 | 88 | 0.0 | 0.0 | 0.00 | 0.00 | 0.00 | 61 | 1014.5 |
| 20260509004638 | 11 | 144 | 0.0 | 0.0 | 0.00 | 0.00 | 0.00 | 62 | 1014.6 |
| 20260509004136 | 11 | 195 | 0.0 | 0.0 | 0.00 | 0.00 | 0.00 | 61 | 1014.5 |
| 20260509003634 | 12 | 180 | 0.0 | 1.6 | 0.00 | 0.00 | 0.00 | 58 | 1014.4 |
| 20260509003131 | 12 | 143 | 0.0 | 0.0 | 0.00 | 0.00 | 0.00 | 57 | 1014.5 |
| 20260509002629 | 12 | 105 | 0.0 | 0.0 | 0.00 | 0.00 | 0.00 | 54 | 1014.4 |
| 20260509002126 | 13 | 67 | 3.2 | 3.2 | 0.00 | 0.00 | 0.00 | 54 | 1014.5 |
| 20260509001624 | 13 | 282 | 0.0 | 0.0 | 0.00 | 0.00 | 0.00 | 53 | 1014.4 |
| 20260509001119 | 13 | 171 | 0.0 | 0.0 | 0.00 | 0.00 | 0.00 | 52 | 1014.4 |
| 20260509000618 | 14 | 138 | 0.0 | 0.0 | 0.00 | 0.00 | 0.00 | 51 | 1014.4 |
| 20260509000114 | 14 | 128 | 0.0 | 0.0 | 0.00 | 0.00 | 0.00 | 49 | 1014.3 |
| 20260508235611 | 15 | 303 | 0.0 | 3.2 | 0.00 | 0.00 | 0.00 | 42 | 1014.4 |
| 20260508235107 | 14 | 172 | 3.2 | 3.2 | 0.00 | 0.00 | 0.00 | 45 | 1014.2 |
| 20260508234605 | 15 | 207 | 1.6 | 3.2 | 0.00 | 0.00 | 0.00 | 46 | 1014.0 |
| 20260508234101 | 15 | 262 | 1.6 | 1.6 | 0.00 | 0.00 | 0.00 | 46 | 1014.0 |
| 20260508233555 | 15 | 215 | 3.2 | 6.4 | 0.00 | 0.00 | 0.00 | 44 | 1013.7 |
| 20260508233052 | 16 | 231 | 1.6 | 9.7 | 0.00 | 0.00 | 0.00 | 41 | 1013.7 |
| 20260508232549 | 16 | 179 | 3.2 | 9.7 | 0.00 | 0.00 | 0.00 | 38 | 1013.5 |
| 20260508232046 | 16 | 244 | 4.8 | 4.8 | 0.00 | 0.00 | 0.00 | 39 | 1013.7 |
| 20260508231543 | 17 | 229 | 4.8 | 6.4 | 0.00 | 0.00 | 0.00 | 40 | 1013.6 |
| 20260508231040 | 19 | 228 | 4.8 | 9.7 | 0.00 | 0.00 | 0.00 | 35 | 1013.6 |
| 20260508230537 | 19 | 279 | 3.2 | 6.4 | 0.00 | 0.00 | 0.00 | 35 | 1013.6 |
| 20260508230033 | 19 | 248 | 3.2 | 6.4 | 0.00 | 0.00 | 0.00 | 35 | 1013.8 |
| 20260508225531 | 19 | 176 | 4.8 | 9.7 | 0.00 | 0.00 | 0.00 | 33 | 1013.8 |
| 20260508225027 | 19 | 231 | 3.2 | 4.8 | 0.00 | 0.00 | 0.00 | 32 | 1013.7 |
| 20260508224525 | 19 | 263 | 4.8 | 12.9 | 0.00 | 0.00 | 0.00 | 35 | 1014.0 |
| 20260508224022 | 19 | 186 | 8.0 | 16.1 | 0.00 | 0.00 | 0.00 | 33 | 1013.8 |
| 20260508223520 | 20 | 230 | 6.4 | 16.1 | 0.00 | 0.00 | 0.00 | 33 | 1013.8 |
| 20260508223017 | 20 | 175 | 3.2 | 6.4 | 0.00 | 0.00 | 0.00 | 35 | 1013.6 |
| 20260508222515 | 20 | 259 | 6.4 | 9.7 | 0.00 | 0.00 | 0.00 | 31 | 1013.6 |
| 20260508222012 | 20 | 158 | 6.4 | 11.3 | 0.00 | 0.00 | 0.00 | 31 | 1013.8 |
| 20260508221508 | 20 | 256 | 3.2 | 9.7 | 0.00 | 0.00 | 0.00 | 35 | 1013.7 |
| 20260508221004 | 18 | 259 | 4.8 | 12.9 | 0.00 | 0.00 | 0.00 | 36 | 1013.7 |
| 20260508220500 | 19 | 214 | 9.7 | 24.1 | 0.00 | 0.00 | 0.00 | 32 | 1013.7 |
| 20260508215956 | 20 | 180 | 12.9 | 14.5 | 0.00 | 0.00 | 0.00 | 31 | 1013.7 |
| 20260508215453 | 20 | 174 | 6.4 | 9.7 | 0.00 | 0.00 | 0.00 | 31 | 1013.6 |
| 20260508214950 | 19 | 119 | 11.3 | 14.5 | 0.00 | 0.00 | 0.00 | 33 | 1013.6 |
| 20260508214448 | 20 | 214 | 8.0 | 16.1 | 0.00 | 0.00 | 0.00 | 33 | 1013.4 |
| 20260508213943 | 20 | 185 | 4.8 | 12.9 | 0.00 | 0.00 | 0.00 | 31 | 1013.4 |
| 20260508213441 | 20 | 182 | 8.0 | 14.5 | 0.00 | 0.00 | 0.00 | 34 | 1013.6 |
| 20260508212936 | 20 | 240 | 3.2 | 11.3 | 0.00 | 0.00 | 0.00 | 35 | 1013.6 |
| 20260508212434 | 20 | 222 | 8.0 | 12.9 | 0.00 | 0.00 | 0.00 | 32 | 1013.8 |
| 20260508211929 | 20 | 170 | 3.2 | 4.8 | 0.00 | 0.00 | 0.00 | 31 | 1013.8 |
| 20260508211425 | 20 | 224 | 4.8 | 11.3 | 0.00 | 0.00 | 0.00 | 35 | 1013.8 |
| 20260508210923 | 20 | 225 | 9.7 | 12.9 | 0.00 | 0.00 | 0.00 | 34 | 1014.1 |
| 20260508210419 | 20 | 262 | 1.6 | 6.4 | 0.00 | 0.00 | 0.00 | 32 | 1014.0 |
| 20260508205915 | 20 | 193 | 8.0 | 16.1 | 0.00 | 0.00 | 0.00 | 37 | 1014.0 |
| 20260508205413 | 20 | 202 | 4.8 | 16.1 | 0.00 | 0.00 | 0.00 | 38 | 1014.1 |
| 20260508204909 | 19 | 125 | 4.8 | 11.3 | 0.00 | 0.00 | 0.00 | 33 | 1014.1 |
| 20260508204406 | 19 | 250 | 4.8 | 6.4 | 0.00 | 0.00 | 0.00 | 34 | 1014.1 |
| 20260508203901 | 18 | 271 | 6.4 | 14.5 | 0.00 | 0.00 | 0.00 | 32 | 1014.4 |
| 20260508203358 | 18 | 236 | 8.0 | 17.7 | 0.00 | 0.00 | 0.00 | 35 | 1014.2 |
| 20260508202853 | 20 | 296 | 3.2 | 6.4 | 0.00 | 0.00 | 0.00 | 35 | 1014.3 |
| 20260508202351 | 20 | 223 | 6.4 | 14.5 | 0.00 | 0.00 | 0.00 | 36 | 1014.4 |
| 20260508201848 | 19 | 185 | 6.4 | 17.7 | 0.00 | 0.00 | 0.00 | 35 | 1014.3 |
| 20260508201345 | 18 | 318 | 6.4 | 16.1 | 0.00 | 0.00 | 0.00 | 34 | 1014.4 |
| 20260508200841 | 18 | 61 | 0.0 | 12.9 | 0.00 | 0.00 | 0.00 | 36 | 1014.5 |
| 20260508200338 | 19 | 47 | 1.6 | 11.3 | 0.00 | 0.00 | 0.00 | 33 | 1014.6 |
| 20260508195834 | 20 | 227 | 14.5 | 20.9 | 0.00 | 0.00 | 0.00 | 33 | 1014.7 |
| 20260508195331 | 19 | 170 | 12.9 | 16.1 | 0.00 | 0.00 | 0.00 | 34 | 1014.8 |
| 20260508194827 | 19 | 256 | 6.4 | 20.9 | 0.00 | 0.00 | 0.00 | 38 | 1015.1 |
| 20260508194325 | 19 | 252 | 6.4 | 11.3 | 0.00 | 0.00 | 0.00 | 30 | 1015.0 |
| 20260508193822 | 20 | 263 | 3.2 | 16.1 | 0.00 | 0.00 | 0.00 | 36 | 1014.8 |
| 20260508193319 | 19 | 238 | 11.3 | 27.4 | 0.00 | 0.00 | 0.00 | 36 | 1015.2 |
| 20260508192815 | 18 | 160 | 12.9 | 14.5 | 0.00 | 0.00 | 0.00 | 35 | 1015.1 |
| 20260508192312 | 19 | 186 | 16.1 | 25.7 | 0.00 | 0.00 | 0.00 | 35 | 1015.0 |
| 20260508191809 | 19 | 169 | 9.7 | 12.9 | 0.00 | 0.00 | 0.00 | 35 | 1015.2 |
| 20260508191306 | 18 | 151 | 8.0 | 22.5 | 0.00 | 0.00 | 0.00 | 35 | 1015.2 |
| 20260508190803 | 18 | 197 | 4.8 | 17.7 | 0.00 | 0.00 | 0.00 | 32 | 1015.2 |
| 20260508190259 | 19 | 233 | 8.0 | 16.1 | 0.00 | 0.00 | 0.00 | 37 | 1015.3 |
| 20260508185755 | 18 | 315 | 6.4 | 11.3 | 0.00 | 0.00 | 0.00 | 34 | 1015.3 |
| 20260508185253 | 19 | 255 | 17.7 | 17.7 | 0.00 | 0.00 | 0.00 | 33 | 1015.4 |
| 20260508184750 | 19 | 310 | 4.8 | 12.9 | 0.00 | 0.00 | 0.00 | 37 | 1015.6 |
| 20260508184247 | 18 | 83 | 11.3 | 17.7 | 0.00 | 0.00 | 0.00 | 34 | 1015.3 |
| 20260508183744 | 19 | 134 | 14.5 | 17.7 | 0.00 | 0.00 | 0.00 | 35 | 1015.4 |
| 20260508183240 | 18 | 236 | 6.4 | 14.5 | 0.00 | 0.00 | 0.00 | 37 | 1015.7 |
| 20260508182736 | 18 | 197 | 6.4 | 22.5 | 0.00 | 0.00 | 0.00 | 37 | 1015.9 |
| 20260508182233 | 18 | 187 | 6.4 | 16.1 | 0.00 | 0.00 | 0.00 | 37 | 1015.8 |
| 20260508181729 | 18 | 210 | 12.9 | 22.5 | 0.00 | 0.00 | 0.00 | 34 | 1015.9 |
| 20260508181226 | 18 | 228 | 6.4 | 14.5 | 0.00 | 0.00 | 0.00 | 37 | 1015.9 |
| 20260508180723 | 17 | 205 | 3.2 | 6.4 | 0.00 | 0.00 | 0.00 | 37 | 1016.1 |
| 20260508180220 | 17 | 207 | 9.7 | 20.9 | 0.00 | 0.00 | 0.00 | 34 | 1016.2 |
| 20260508175716 | 18 | 200 | 9.7 | 33.8 | 0.00 | 0.00 | 0.00 | 36 | 1016.1 |
| 20260508175213 | 18 | 262 | 6.4 | 17.7 | 0.00 | 0.00 | 0.00 | 33 | 1016.3 |
| 20260508174711 | 17 | 250 | 3.2 | 20.9 | 0.00 | 0.00 | 0.00 | 39 | 1016.3 |
| 20260508174208 | 17 | 261 | 9.7 | 17.7 | 0.00 | 0.00 | 0.00 | 35 | 1016.5 |
| 20260508173704 | 17 | 225 | 6.4 | 9.7 | 0.00 | 0.00 | 0.00 | 34 | 1016.5 |
| 20260508173200 | 17 | 226 | 9.7 | 24.1 | 0.00 | 0.00 | 0.00 | 37 | 1016.5 |
| 20260508172658 | 17 | 242 | 9.7 | 16.1 | 0.00 | 0.00 | 0.00 | 36 | 1016.7 |
| 20260508172154 | 17 | 156 | 8.0 | 22.5 | 0.00 | 0.00 | 0.00 | 38 | 1016.8 |
| 20260508171650 | 16 | 91 | 3.2 | 9.7 | 0.00 | 0.00 | 0.00 | 34 | 1016.9 |
| 20260508171147 | 17 | 71 | 6.4 | 9.7 | 0.00 | 0.00 | 0.00 | 37 | 1017.0 |
| 20260508170644 | 17 | 259 | 3.2 | 16.1 | 0.00 | 0.00 | 0.00 | 32 | 1017.2 |
| 20260508170142 | 17 | 208 | 12.9 | 17.7 | 0.00 | 0.00 | 0.00 | 36 | 1017.4 |
| 20260508165639 | 16 | 175 | 6.4 | 11.3 | 0.00 | 0.00 | 0.00 | 41 | 1017.0 |
| 20260508165136 | 16 | 246 | 3.2 | 6.4 | 0.00 | 0.00 | 0.00 | 34 | 1017.3 |
| 20260508164632 | 16 | 201 | 9.7 | 20.9 | 0.00 | 0.00 | 0.00 | 36 | 1017.4 |
| 20260508164129 | 16 | 192 | 11.3 | 20.9 | 0.00 | 0.00 | 0.00 | 36 | 1017.4 |
| 20260508163626 | 16 | 300 | 4.8 | 11.3 | 0.00 | 0.00 | 0.00 | 36 | 1017.6 |
| 20260508163124 | 16 | 120 | 6.4 | 6.4 | 0.00 | 0.00 | 0.00 | 44 | 1017.8 |
| 20260508162619 | 16 | 279 | 9.7 | 11.3 | 0.00 | 0.00 | 0.00 | 35 | 1017.8 |
| 20260508162117 | 16 | 138 | 9.7 | 16.1 | 0.00 | 0.00 | 0.00 | 36 | 1017.4 |
| 20260508161614 | 15 | 115 | 8.0 | 16.1 | 0.00 | 0.00 | 0.00 | 35 | 1017.6 |
| 20260508161111 | 16 | 217 | 6.4 | 20.9 | 0.00 | 0.00 | 0.00 | 39 | 1017.7 |
| 20260508160610 | 16 | 197 | 6.4 | 11.3 | 0.00 | 0.00 | 0.00 | 40 | 1017.7 |
| 20260508160107 | 15 | 270 | 6.4 | 9.7 | 0.00 | 0.00 | 0.00 | 38 | 1017.6 |
| 20260508155604 | 16 | 262 | 9.7 | 12.9 | 0.00 | 0.00 | 0.00 | 39 | 1017.8 |
| 20260508155100 | 15 | 174 | 3.2 | 6.4 | 0.00 | 0.00 | 0.00 | 40 | 1017.9 |
| 20260508154557 | 15 | 85 | 4.8 | 22.5 | 0.00 | 0.00 | 0.00 | 37 | 1017.8 |
| 20260508154054 | 15 | 144 | 11.3 | 24.1 | 0.00 | 0.00 | 0.00 | 38 | 1018.1 |
| 20260508153551 | 15 | 190 | 1.6 | 11.3 | 0.00 | 0.00 | 0.00 | 37 | 1017.8 |
| 20260508153047 | 15 | 197 | 11.3 | 14.5 | 0.00 | 0.00 | 0.00 | 40 | 1017.9 |
| 20260508152545 | 14 | 233 | 14.5 | 25.7 | 0.00 | 0.00 | 0.00 | 44 | 1018.0 |
| 20260508152040 | 14 | 198 | 12.9 | 24.1 | 0.00 | 0.00 | 0.00 | 39 | 1017.6 |
| 20260508151537 | 14 | 210 | 8.0 | 16.1 | 0.00 | 0.00 | 0.00 | 40 | 1017.7 |
| 20260508151034 | 13 | 277 | 0.0 | 4.8 | 0.00 | 0.00 | 0.00 | 41 | 1017.8 |
| 20260508150531 | 14 | 201 | 3.2 | 9.7 | 0.00 | 0.00 | 0.00 | 42 | 1018.2 |
| 20260508150026 | 15 | 281 | 8.0 | 22.5 | 0.00 | 0.00 | 0.00 | 40 | 1018.2 |
| 20260508145523 | 14 | 242 | 9.7 | 20.9 | 0.00 | 0.00 | 0.00 | 41 | 1018.3 |
| 20260508145019 | 13 | 119 | 9.7 | 11.3 | 0.00 | 0.00 | 0.00 | 42 | 1018.2 |
| 20260508144517 | 14 | 295 | 0.0 | 17.7 | 0.00 | 0.00 | 0.00 | 42 | 1018.2 |
| 20260508144015 | 13 | 308 | 9.7 | 17.7 | 0.00 | 0.00 | 0.00 | 44 | 1018.2 |
| 20260508143513 | 13 | 114 | 6.4 | 12.9 | 0.00 | 0.00 | 0.00 | 44 | 1018.2 |
| 20260508143009 | 14 | 233 | 11.3 | 12.9 | 0.00 | 0.00 | 0.00 | 44 | 1018.2 |
| 20260508142506 | 14 | 210 | 9.7 | 16.1 | 0.00 | 0.00 | 0.00 | 46 | 1018.0 |
| 20260508142002 | 13 | 104 | 4.8 | 12.9 | 0.00 | 0.00 | 0.00 | 45 | 1018.1 |
| 20260508141459 | 13 | 148 | 3.2 | 12.9 | 0.00 | 0.00 | 0.00 | 51 | 1017.9 |
| 20260508140957 | 12 | 171 | 0.0 | 14.5 | 0.00 | 0.00 | 0.00 | 44 | 1018.2 |
| 20260508140454 | 13 | 253 | 3.2 | 6.4 | 0.00 | 0.00 | 0.00 | 43 | 1018.0 |
| 20260508135949 | 13 | 79 | 4.8 | 20.9 | 0.00 | 0.00 | 0.00 | 44 | 1018.1 |
| 20260508135446 | 13 | 230 | 3.2 | 4.8 | 0.00 | 0.00 | 0.00 | 46 | 1018.0 |
| 20260508134942 | 12 | 172 | 9.7 | 14.5 | 0.00 | 0.00 | 0.00 | 44 | 1017.9 |
| 20260508134439 | 12 | 228 | 4.8 | 9.7 | 0.00 | 0.00 | 0.00 | 46 | 1018.2 |
| 20260508133935 | 11 | 198 | 8.0 | 12.9 | 0.00 | 0.00 | 0.00 | 44 | 1018.3 |
| 20260508133433 | 11 | 258 | 3.2 | 6.4 | 0.00 | 0.00 | 0.00 | 47 | 1018.2 |
| 20260508132930 | 11 | 155 | 4.8 | 6.4 | 0.00 | 0.00 | 0.00 | 50 | 1018.5 |
| 20260508132428 | 10 | 314 | 3.2 | 9.7 | 0.00 | 0.00 | 0.00 | 46 | 1018.3 |
| 20260508131924 | 9 | 333 | 1.6 | 3.2 | 0.00 | 0.00 | 0.00 | 60 | 1018.3 |
| 20260508131420 | 8 | 257 | 1.6 | 1.6 | 0.00 | 0.00 | 0.00 | 65 | 1018.3 |
| 20260508130917 | 7 | 24 | 0.0 | 3.2 | 0.00 | 0.00 | 0.00 | 71 | 1018.2 |
| 20260508130414 | 7 | 93 | 3.2 | 3.2 | 0.00 | 0.00 | 0.00 | 74 | 1018.6 |
| 20260508125909 | 6 | 81 | 3.2 | 3.2 | 0.00 | 0.00 | 0.00 | 75 | 1018.6 |
| 20260508125400 | 5 | 76 | 3.2 | 4.8 | 0.00 | 0.00 | 0.00 | 75 | 1018.6 |
| 20260508124858 | 6 | 28 | 0.0 | 0.0 | 0.00 | 0.00 | 0.00 | 76 | 1018.5 |
| 20260508124356 | 5 | 227 | 3.2 | 6.4 | 0.00 | 0.00 | 0.00 | 77 | 1018.5 |
| 20260508123854 | 5 | 54 | 1.6 | 3.2 | 0.00 | 0.00 | 0.00 | 77 | 1018.6 |
| 20260508123352 | 5 | 52 | 0.0 | 1.6 | 0.00 | 0.00 | 0.00 | 79 | 1018.6 |
| 20260508122848 | 4 | 89 | 1.6 | 1.6 | 0.00 | 0.00 | 0.00 | 78 | 1018.5 |
| 20260508122344 | 4 | 264 | 3.2 | 11.3 | 0.00 | 0.00 | 0.00 | 80 | 1018.6 |
| 20260508121842 | 3 | 174 | 1.6 | 6.4 | 0.00 | 0.00 | 0.00 | 82 | 1018.6 |
| 20260508121340 | 3 | 207 | 3.2 | 6.4 | 0.00 | 0.00 | 0.00 | 81 | 1018.7 |
| 20260508120837 | 3 | 224 | 6.4 | 6.4 | 0.00 | 0.00 | 0.00 | 81 | 1018.8 |
| 20260508120335 | 3 | 249 | 3.2 | 6.4 | 0.00 | 0.00 | 0.00 | 82 | 1018.5 |
| 20260508115832 | 3 | 200 | 3.2 | 3.2 | 0.00 | 0.00 | 0.00 | 84 | 1018.8 |
| 20260508115330 | 2 | 59 | 0.0 | 0.0 | 0.00 | 0.00 | 0.00 | 85 | 1018.6 |
| 20260508114826 | 2 | 288 | 0.0 | 3.2 | 0.00 | 0.00 | 0.00 | 87 | 1018.7 |
| 20260508114323 | 2 | 308 | 0.0 | 0.0 | 0.00 | 0.00 | 0.00 | 85 | 1018.7 |
| 20260508113820 | 2 | 71 | 1.6 | 3.2 | 0.00 | 0.00 | 0.00 | 86 | 1018.7 |
| 20260508113318 | 2 | 310 | 1.6 | 1.6 | 0.00 | 0.00 | 0.00 | 86 | 1018.5 |
| 20260508112814 | 2 | 68 | 1.6 | 1.6 | 0.00 | 0.00 | 0.00 | 87 | 1018.7 |
| 20260508112312 | 1 | 52 | 3.2 | 3.2 | 0.00 | 0.00 | 0.00 | 87 | 1018.5 |
| 20260508111808 | 1 | 49 | 1.6 | 1.6 | 0.00 | 0.00 | 0.00 | 89 | 1018.3 |
| 20260508111305 | 1 | 150 | 0.0 | 0.0 | 0.00 | 0.00 | 0.00 | 87 | 1018.6 |
| 20260508110802 | 1 | 283 | 1.6 | 4.8 | 0.00 | 0.00 | 0.00 | 86 | 1018.6 |
| 20260508110259 | 1 | 231 | 4.8 | 4.8 | 0.00 | 0.00 | 0.00 | 87 | 1018.6 |
| 20260508105759 | 1 | 239 | 3.2 | 4.8 | 0.00 | 0.00 | 0.00 | 86 | 1018.5 |
| 20260508105256 | 1 | 226 | 3.2 | 4.8 | 0.00 | 0.00 | 0.00 | 86 | 1018.1 |
| 20260508104753 | 1 | 190 | 0.0 | 9.7 | 0.00 | 0.00 | 0.00 | 86 | 1018.1 |
| 20260508104250 | 1 | 174 | 1.6 | 3.2 | 0.00 | 0.00 | 0.00 | 89 | 1018.1 |
| 20260508103747 | 1 | 144 | 0.0 | 1.6 | 0.00 | 0.00 | 0.00 | 90 | 1017.9 |
| 20260508103244 | 1 | 34 | 0.0 | 1.6 | 0.00 | 0.00 | 0.00 | 90 | 1018.0 |
| 20260508102741 | 1 | 248 | 0.0 | 0.0 | 0.00 | 0.00 | 0.00 | 89 | 1018.1 |
| 20260508102239 | 1 | 58 | 1.6 | 3.2 | 0.00 | 0.00 | 0.00 | 89 | 1017.9 |
| 20260508101736 | 1 | 224 | 0.0 | 1.6 | 0.00 | 0.00 | 0.00 | 88 | 1017.8 |
| 20260508101234 | 1 | 185 | 0.0 | 3.2 | 0.00 | 0.00 | 0.00 | 88 | 1017.7 |
| 20260508100731 | 1 | 177 | 3.2 | 6.4 | 0.00 | 0.00 | 0.00 | 89 | 1017.6 |
| 20260508100229 | 1 | 165 | 0.0 | 0.0 | 0.00 | 0.00 | 0.00 | 89 | 1017.8 |
| 20260508095725 | 1 | 331 | 1.6 | 1.6 | 0.00 | 0.00 | 0.00 | 89 | 1017.7 |
| 20260508095223 | 1 | 207 | 0.0 | 1.6 | 0.00 | 0.00 | 0.00 | 88 | 1017.7 |
| 20260508094719 | 1 | 213 | 0.0 | 1.6 | 0.00 | 0.00 | 0.00 | 88 | 1017.7 |
| 20260508094216 | 1 | 232 | 3.2 | 3.2 | 0.00 | 0.00 | 0.00 | 90 | 1017.8 |